Date,TemperatureHighF,TemperatureAvgF,TemperatureLowF,DewpointHighF,DewpointAvgF,DewpointLowF,HumidityHigh,HumidityAvg,HumidityLow,PressureMaxIn,PressureMinIn,WindSpeedMaxMPH,WindSpeedAvgMPH,GustSpeedMaxMPH,PrecipitationSumIn
2013-1-7,52.9,43.4,29.2,34.0,31.5,27.0,92,65,43,30.47,30.36,11,4,0,0.00
2013-1-8,56.5,46.5,38.2,46.0,38.7,32.0,85,74,64,30.43,30.33,13,6,0,0.00
2013-1-9,55.9,51.7,49.0,54.0,49.1,44.0,95,90,82,30.46,30.36,11,5,0,0.06
2013-1-10,64.9,60.7,56.7,61.0,58.9,55.0,95,93,86,30.41,30.11,22,10,0,0.02
2013-1-11,65.2,63.6,61.6,63.0,61.6,60.0,97,93,85,30.20,30.12,18,6,0,0.26
2013-1-12,69.4,66.1,63.2,65.0,62.9,59.0,97,89,82,30.16,30.00,15,6,0,0.30
2013-1-13,68.1,61.9,44.7,64.0,59.5,44.0,96,91,83,30.14,29.97,17,8,0,0.33
2013-1-14,44.4,40.3,36.3,43.0,39.5,35.0,97,96,96,30.31,30.14,14,6,0,0.22
2013-1-15,47.3,43.1,39.3,47.0,42.5,39.0,98,97,97,30.21,30.02,11,2,0,0.21
2013-1-16,47.3,41.1,38.7,47.0,40.5,38.0,100,98,97,30.15,29.99,11,3,0,0.11
2013-1-17,42.9,37.9,32.8,41.0,35.7,31.0,97,92,78,30.47,29.91,19,8,0,0.06
2013-1-18,49.4,39.0,31.3,36.0,32.3,30.0,94,78,52,30.67,30.48,7,2,0,0.73
2013-1-19,54.4,43.7,33.3,33.0,31.3,29.0,85,63,43,30.52,30.31,13,2,0,0.73
2013-1-20,57.6,46.7,37.9,40.0,35.8,32.0,82,67,46,30.33,30.22,7,2,0,0.00
2013-1-21,45.7,39.2,31.4,38.0,27.2,18.0,95,65,42,30.34,30.20,18,5,0,0.00
2013-1-22,38.9,32.5,26.0,22.0,17.8,15.0,71,56,41,30.46,30.33,10,4,0,0.00
2013-1-23,53.7,44.5,33.2,40.0,31.6,21.0,74,61,48,30.48,30.28,15,5,0,0.00
2013-1-24,47.4,43.0,34.6,41.0,27.3,14.0,80,56,32,30.41,30.26,14,4,0,0.00
2013-1-25,49.1,42.3,36.2,43.0,32.3,13.0,96,70,38,30.36,30.16,20,6,0,0.06
2013-1-26,52.1,42.9,35.6,41.0,35.1,31.0,96,76,46,30.39,30.25,9,2,0,0.06
2013-1-27,51.0,45.9,41.0,41.0,36.7,34.0,80,70,65,30.46,30.38,18,6,0,0.00
2013-1-28,61.6,52.0,45.0,54.0,45.7,35.0,92,79,63,30.42,30.27,16,7,0,0.00
2013-1-29,67.2,59.3,50.6,63.0,56.7,49.0,97,91,84,30.27,29.88,14,6,0,0.00
2013-1-30,69.0,54.6,37.2,65.0,51.3,29.0,96,88,72,29.99,29.62,38,10,0,0.49
2013-1-31,47.9,38.9,30.7,29.0,27.2,25.0,84,64,44,30.24,30.00,16,7,0,0.16
2013-2-1,41.5,32.0,26.7,34.0,18.3,7.0,79,58,32,30.51,30.23,22,6,0,0.01
2013-2-2,39.3,33.6,25.9,37.0,26.4,16.0,96,76,57,30.44,30.23,9,3,0,0.26
2013-2-3,52.1,42.7,34.9,39.0,32.2,28.0,97,70,41,30.25,30.14,17,6,0,0.26
2013-2-4,48.6,40.2,30.8,35.0,30.8,27.0,90,71,45,30.20,30.05,7,2,0,0.00
2013-2-5,54.6,48.4,42.0,50.0,43.9,35.0,100,85,67,30.13,30.03,10,2,0,0.01
2013-2-6,63.9,49.2,36.7,49.0,39.2,36.0,97,73,40,30.26,30.13,10,1,0,0.01
2013-2-7,53.9,49.2,47.3,48.0,44.1,35.0,96,83,50,30.19,30.00,12,4,0,0.16
2013-2-8,49.3,44.2,34.5,48.0,41.4,31.0,97,90,74,30.32,29.98,17,5,0,0.11
2013-2-9,59.6,44.7,29.4,35.0,31.2,27.0,93,64,29,30.39,30.26,15,4,0,0.12
2013-2-10,55.1,51.6,48.1,54.0,43.4,32.0,96,76,53,30.27,30.03,21,10,0,1.16
2013-2-11,55.7,52.3,45.5,55.0,47.5,40.0,97,84,61,30.21,30.06,9,2,0,1.23
2013-2-12,49.6,44.9,40.4,42.0,38.7,32.0,92,80,53,30.22,29.85,13,4,0,0.19
2013-2-13,46.4,43.1,38.4,46.0,40.5,36.0,100,90,81,30.09,29.77,14,6,0,0.01
2013-2-14,54.4,45.6,36.5,40.0,37.1,33.0,90,73,55,30.17,30.10,16,2,0,0.01
2013-2-15,56.1,46.4,39.3,42.0,37.4,31.0,89,72,51,30.19,30.10,16,5,0,0.00
2013-2-16,39.2,34.0,28.2,31.0,22.1,15.0,77,63,41,30.29,30.12,18,7,0,0.00
2013-2-17,45.7,35.0,21.8,22.0,17.6,13.0,78,51,33,30.41,30.30,11,2,0,0.00
2013-2-18,58.3,47.0,34.2,35.0,28.5,20.0,60,49,39,30.38,30.02,23,9,0,0.00
2013-2-19,50.8,44.5,36.6,45.0,32.6,20.0,96,67,34,30.30,30.00,18,7,0,0.01
2013-2-20,42.4,36.9,29.9,25.0,20.8,12.0,78,54,29,30.34,30.23,11,4,0,0.01
2013-2-21,55.7,42.7,31.2,44.0,25.7,-99.9,94,59,26,30.26,29.97,20,-5,0,0.62
2013-2-26,47.7,43.7,40.0,44.0,37.2,34.0,96,78,69,29.88,29.61,21,12,0,0.01
2013-2-27,54.9,45.4,39.1,38.0,34.6,31.0,78,67,48,30.00,29.88,18,7,0,0.01
2013-3-18,68.1,58.4,52.0,62.0,55.1,49.0,93,89,79,29.98,29.77,23,8,0,0.27
2013-3-19,58.8,49.7,40.8,49.0,33.8,23.0,90,57,35,30.20,29.99,11,5,0,0.27
2013-3-20,50.1,43.5,41.0,27.0,23.3,17.0,55,46,29,30.23,30.17,9,1,0,0.00
2013-3-28,59.4,54.1,46.4,35.0,32.0,27.0,60,44,35,30.45,30.33,12,4,0,0.00
2013-3-29,64.9,53.0,38.5,41.0,36.1,33.0,81,55,33,30.38,30.22,16,3,0,0.00
2013-3-30,67.4,55.7,48.3,55.0,47.8,40.0,96,77,53,30.24,30.03,14,2,0,0.45
2013-3-31,66.4,59.0,55.3,58.0,55.9,54.0,97,90,68,30.03,29.92,18,4,0,0.11
2013-4-1,66.7,58.2,50.6,56.0,48.2,42.0,97,72,43,30.14,29.95,15,4,0,0.02
2013-4-2,58.0,49.5,42.8,42.0,33.4,28.0,82,56,37,30.27,30.13,11,4,0,0.02
2013-4-3,54.7,46.9,41.5,44.0,35.5,25.0,91,67,40,30.26,30.18,15,5,0,0.20
2013-4-4,46.0,43.1,41.4,44.0,41.2,40.0,95,92,90,30.15,30.04,21,8,0,0.25
2013-4-5,63.0,52.6,41.6,47.0,41.1,37.0,97,69,42,30.18,30.07,17,4,0,0.07
2013-4-6,72.1,60.0,42.8,46.0,40.1,37.0,80,50,32,30.24,30.10,17,4,0,0.07
2013-4-7,72.9,63.6,52.0,51.0,47.9,43.0,75,58,43,30.21,30.07,24,5,0,0.00
2013-4-8,75.9,65.4,56.8,60.0,54.8,51.0,88,70,47,30.15,30.05,15,5,0,0.00
2013-4-9,79.8,69.5,58.5,60.0,57.0,54.0,86,66,47,30.21,30.05,16,4,0,0.00
2013-4-10,81.2,71.6,61.6,62.0,58.5,56.0,84,64,48,30.13,29.91,18,5,0,0.00
2013-4-11,75.8,66.2,60.0,66.0,60.5,57.0,95,82,69,29.93,29.58,23,7,0,0.66
2013-4-12,62.5,54.1,45.6,58.0,43.8,38.0,95,71,42,30.05,29.73,13,5,0,0.12
2013-4-13,70.8,60.4,46.4,46.0,42.8,39.0,88,55,32,30.15,30.04,10,2,0,0.18
2013-4-14,59.9,55.9,51.6,54.0,47.2,39.0,92,74,49,30.08,29.92,20,6,0,0.02
2013-4-15,73.7,63.4,55.7,62.0,57.9,54.0,94,83,65,30.13,29.97,13,3,0,0.02
2013-4-16,80.0,71.2,62.8,67.0,63.7,59.0,89,78,63,30.24,30.13,15,6,0,0.00
2013-4-17,84.2,73.0,66.5,68.0,65.0,62.0,89,76,57,30.22,30.07,15,5,0,0.00
2013-4-18,79.6,71.1,63.4,65.0,61.0,58.0,93,72,48,30.07,29.77,24,8,0,0.00
2013-4-19,72.3,51.7,42.9,65.0,46.0,34.0,95,81,63,30.21,29.73,25,9,0,0.09
2013-4-20,60.7,48.9,35.6,40.0,35.0,30.0,94,62,36,30.35,30.21,12,2,0,0.03
2013-4-21,66.5,55.2,42.8,42.0,37.9,33.0,74,54,35,30.41,30.28,13,4,0,0.01
2013-4-22,68.3,59.5,50.8,50.0,45.8,42.0,75,61,49,30.35,30.17,15,6,0,0.02
2013-4-23,72.4,62.2,52.5,53.0,47.9,39.0,78,61,48,30.25,30.08,15,6,0,0.00
2013-4-24,65.6,56.6,46.7,61.0,50.0,-99.9,95,85,70,30.30,30.07,24,-5,0,0.03
2013-4-25,64.7,51.8,40.4,43.0,38.4,35.0,91,64,37,30.43,30.29,11,3,0,0.03
2013-4-26,72.7,58.6,43.6,47.0,38.2,-99.9,72,51,31,30.45,30.28,13,4,0,0.00
2013-4-27,72.8,62.4,54.9,62.0,55.4,47.0,94,79,56,30.36,30.05,18,8,0,0.10
2013-4-28,65.1,59.1,56.7,64.0,55.3,-99.9,96,92,88,30.11,29.95,21,-15,0,0.06
2013-4-29,71.0,62.5,56.2,58.0,55.9,54.0,97,80,58,30.09,29.99,6,2,0,0.02
2013-4-30,77.3,66.0,50.9,60.0,54.9,49.0,95,70,42,30.10,30.00,14,2,0,0.01
2013-5-1,69.0,65.4,62.1,60.0,58.0,54.0,90,77,68,30.19,30.09,19,8,0,0.01
2013-5-2,66.4,62.2,57.3,59.0,56.9,53.0,87,83,76,30.20,30.12,18,9,0,0.02
2013-5-3,68.8,62.0,58.8,58.0,56.5,56.0,93,82,66,30.12,29.92,25,12,0,0.01
2013-5-4,58.7,46.8,43.2,56.0,45.5,41.0,96,95,92,30.04,29.91,12,4,0,0.01
2013-5-5,60.5,49.2,43.5,51.0,46.6,43.0,97,91,56,29.96,29.87,11,3,0,0.01
2013-5-6,54.3,49.7,47.4,51.0,48.5,46.0,97,95,89,29.98,29.86,9,2,0,0.01
2013-5-7,67.3,56.1,46.5,54.0,49.9,46.0,97,81,54,30.07,29.96,11,2,0,0.01
2013-5-8,75.0,64.1,52.3,60.0,56.0,51.0,96,76,56,30.14,30.05,10,3,0,0.01
2013-5-9,79.4,69.1,57.4,62.0,58.4,55.0,94,71,48,30.18,30.07,13,2,0,0.02
2013-5-10,72.2,66.5,62.4,60.0,58.3,56.0,88,76,59,30.11,29.98,17,4,0,0.02
2013-5-11,71.3,64.4,56.8,65.0,61.1,53.0,96,89,76,30.06,29.96,9,2,0,0.01
2013-5-12,64.1,56.7,51.5,53.0,42.6,34.0,93,62,38,30.21,30.06,11,4,0,0.01
2013-5-13,66.7,56.2,41.8,47.0,41.5,37.0,92,61,40,30.34,30.20,14,2,0,0.01
2013-5-14,78.8,65.6,49.2,57.0,52.1,45.0,88,64,46,30.29,30.14,14,4,0,0.00
2013-5-15,81.1,71.0,58.6,61.0,56.8,55.0,86,63,41,30.22,30.06,13,3,0,0.01
2013-5-16,80.3,69.8,63.9,64.0,55.8,-99.9,82,65,45,30.11,30.02,13,-18,0,0.01
2013-5-17,74.6,68.5,65.1,65.0,63.2,60.0,95,84,70,30.11,30.00,11,3,0,0.01
2013-5-18,76.7,70.2,65.2,71.0,68.0,64.0,96,92,83,30.09,30.03,10,3,0,0.01
2013-5-19,77.7,70.1,62.8,72.0,65.9,-99.9,97,89,71,30.11,30.02,18,-5,0,0.01
2013-5-20,80.8,70.9,61.6,69.0,65.2,60.0,94,83,65,30.14,30.02,10,2,0,0.00
2013-5-21,85.5,75.8,65.5,71.0,67.7,64.0,95,77,55,30.07,29.90,12,2,0,0.00
2013-5-22,81.0,72.8,67.6,70.0,64.9,-99.9,91,81,60,29.99,29.90,16,4,0,0.01
2013-5-23,79.4,71.3,63.6,67.0,62.3,57.0,97,75,49,30.09,29.95,12,3,0,0.01
2013-5-24,71.6,64.3,56.5,57.0,52.2,47.0,90,67,43,30.30,30.09,13,4,0,0.00
2013-5-25,75.6,63.5,49.7,53.0,47.3,36.0,87,59,24,30.38,30.23,10,2,0,0.00
2013-5-26,82.3,69.4,52.6,58.0,53.4,49.0,90,60,32,30.31,30.19,6,1,0,0.00
2013-5-27,83.2,72.5,59.9,63.0,59.8,56.0,87,66,47,30.24,30.12,12,3,0,0.00
2013-5-28,82.3,74.0,63.9,65.0,61.5,58.0,86,66,47,30.20,30.10,13,4,0,0.00
2013-5-29,83.4,72.6,66.6,68.0,58.3,-99.9,79,66,52,30.21,30.10,13,-26,0,0.00
2013-5-30,81.2,74.2,68.6,70.0,66.5,63.0,86,77,64,30.22,30.09,17,7,0,0.00
2013-5-31,82.4,75.7,69.5,70.0,66.7,65.0,86,74,57,30.17,30.05,14,6,0,0.00
2013-6-1,81.8,74.3,68.5,73.0,68.3,64.0,95,82,67,30.08,29.98,18,5,0,0.07
2013-6-2,79.2,72.4,68.3,71.0,64.2,-99.9,96,80,62,30.01,29.92,13,-20,0,0.03
2013-6-3,79.7,71.9,64.2,68.0,64.4,60.0,97,79,59,30.02,29.93,10,2,0,0.01
2013-6-4,83.3,73.2,62.1,66.0,62.7,59.0,89,71,53,30.07,29.98,7,1,0,0.00
2013-6-5,76.3,70.4,67.5,72.0,67.0,63.0,95,89,76,30.03,29.88,10,2,0,0.08
2013-6-6,80.3,72.4,65.8,71.0,68.0,65.0,96,87,70,29.93,29.79,6,1,0,0.01
2013-6-7,77.6,70.3,65.9,70.0,68.2,65.0,97,93,75,29.93,29.75,7,1,0,0.02
2013-6-8,79.6,71.6,64.0,68.0,64.5,61.0,98,80,55,30.10,29.91,15,2,0,0.00
2013-6-9,80.8,73.1,69.3,72.0,68.6,66.0,95,86,68,30.11,29.97,16,5,0,0.00
2013-6-10,83.2,74.5,66.2,69.0,67.5,65.0,96,80,56,30.05,29.96,17,6,0,0.01
2013-6-11,88.8,78.0,71.5,75.0,68.2,-99.9,94,77,58,30.09,30.01,14,-17,0,0.01
2013-6-12,91.1,81.1,72.5,76.0,72.7,69.0,95,77,51,30.12,30.01,10,2,0,0.00
2013-6-13,87.3,78.7,72.0,77.0,72.6,66.0,94,82,68,30.01,29.83,15,4,0,0.00
2013-6-14,81.5,73.4,65.6,66.0,62.2,59.0,89,70,49,30.06,29.93,12,2,0,0.00
2013-6-15,84.3,74.2,60.6,66.0,62.9,57.0,88,69,48,30.15,30.05,11,2,0,0.00
2013-6-16,84.7,72.7,67.7,73.0,63.0,-99.9,87,75,66,30.15,30.03,17,-17,0,0.00
2013-6-17,82.4,71.6,67.9,75.0,66.9,64.0,87,85,76,30.07,29.96,8,2,0,0.00
2013-6-18,78.8,72.7,68.5,73.0,67.9,64.0,88,85,76,29.98,29.91,13,4,0,0.00
2013-6-19,83.7,74.6,66.2,70.0,66.6,63.0,89,77,55,30.11,29.98,8,1,0,0.00
2013-6-20,83.9,75.7,66.9,69.0,66.7,63.0,88,74,56,30.22,30.11,11,3,0,0.00
2013-6-21,83.1,75.1,66.2,68.0,65.5,62.0,88,73,51,30.27,30.16,11,3,0,0.00
2013-6-22,83.6,75.6,68.0,68.0,64.6,62.0,88,70,50,30.25,30.11,14,4,0,0.00
2013-6-23,83.8,75.7,66.6,70.0,67.4,62.0,88,76,61,30.21,30.11,11,2,0,0.00
2013-6-24,84.1,75.9,70.0,74.0,69.8,66.0,88,81,66,30.25,30.12,15,3,0,0.00
2013-6-25,85.5,77.1,71.1,73.0,70.2,67.0,88,80,64,30.20,30.05,10,3,0,0.00
2013-6-26,87.0,79.1,70.7,75.0,71.4,67.0,88,78,63,30.10,29.95,13,4,0,0.00
2013-6-27,89.3,78.9,68.9,78.0,71.6,66.0,89,79,57,30.00,29.85,19,4,0,0.00
2013-6-28,85.3,78.8,72.8,75.0,70.5,68.0,88,76,57,29.90,29.73,13,3,0,0.00
2013-6-29,84.7,77.9,71.5,71.0,64.8,58.0,89,66,41,29.76,29.70,8,2,0,0.00
2013-6-30,84.8,74.7,64.9,67.0,62.7,58.0,87,68,42,29.83,29.73,11,2,0,0.00
2013-7-1,82.2,73.3,64.8,69.0,65.0,61.0,89,76,53,29.94,29.80,11,2,0,0.00
2013-7-2,81.6,73.3,65.0,69.0,65.6,61.0,89,78,56,30.08,29.93,12,2,0,0.01
2013-7-3,77.8,71.9,68.0,71.0,67.5,64.0,89,86,78,30.15,30.06,11,4,0,0.17
2013-7-4,76.3,70.8,68.5,71.0,66.7,64.0,89,86,76,30.14,30.06,17,6,0,0.02
2013-7-5,72.7,70.8,68.6,69.0,67.2,65.0,89,88,85,30.19,30.10,19,6,0,0.01
2013-7-6,72.2,70.1,68.3,69.0,66.1,64.0,89,87,85,30.17,30.10,7,2,0,0.03
2013-7-7,81.4,74.7,69.9,73.0,69.6,66.0,90,84,73,30.19,30.11,10,2,0,0.02
2013-7-8,82.4,74.5,70.4,74.0,70.1,66.0,89,86,76,30.22,30.14,12,1,0,0.01
2013-7-9,87.1,77.9,72.2,75.0,71.5,68.0,89,81,62,30.23,30.09,8,1,0,0.01
2013-7-10,85.9,78.5,69.2,76.0,72.5,66.0,89,82,67,30.12,29.97,13,2,0,0.02
2013-7-11,84.0,74.6,69.1,75.0,69.6,65.0,90,84,72,30.05,29.91,10,1,0,0.01
2013-7-12,83.9,75.8,68.6,73.0,69.1,64.0,90,80,62,30.00,29.93,11,2,0,0.01
2013-7-13,81.2,72.5,62.6,72.0,67.2,60.0,90,83,71,30.09,29.98,14,5,0,0.01
2013-7-14,83.1,75.5,70.3,73.0,70.3,67.0,90,84,68,30.19,30.07,16,5,0,0.00
2013-7-15,84.7,76.9,72.3,71.0,70.1,69.0,90,80,61,30.30,30.18,15,7,0,0.01
2013-7-16,86.3,77.7,70.9,72.0,70.1,68.0,90,78,57,30.35,30.26,13,4,0,0.00
2013-7-17,89.0,77.7,70.5,76.0,68.1,-99.9,89,76,60,30.33,30.18,9,-20,0,0.00
2013-7-18,86.8,79.1,70.2,73.0,70.2,67.0,89,75,58,30.23,30.08,11,2,0,0.00
2013-7-19,89.2,80.2,70.3,74.0,71.2,67.0,89,75,53,30.15,29.99,8,1,0,0.00
2013-7-20,85.0,76.6,71.5,75.0,71.4,68.0,89,84,67,30.06,29.95,14,1,0,0.01
2013-7-21,83.8,74.8,69.6,75.0,69.9,66.0,89,85,69,30.06,29.97,10,2,0,0.00
2013-7-22,80.8,73.8,68.5,73.0,69.0,65.0,89,85,73,30.04,29.93,14,4,0,0.00
2013-7-23,73.6,69.0,68.9,71.0,61.2,-99.9,90,85,86,30.03,29.91,21,-20,0,0.00
2013-7-24,82.2,73.7,68.3,74.0,69.3,64.0,90,86,72,29.98,29.88,6,1,0,0.01
2013-7-25,82.2,74.7,67.8,70.0,66.5,63.0,90,76,56,30.06,29.93,8,2,0,0.05
2013-7-26,84.6,74.9,64.3,70.0,66.9,61.0,90,77,55,30.10,30.01,9,1,0,0.02
2013-7-27,81.2,74.6,68.5,70.0,67.4,63.0,89,79,55,30.02,29.93,13,2,0,0.01
2013-7-28,82.1,75.3,69.1,71.0,68.5,66.0,89,80,64,30.10,29.96,6,1,0,0.01
2013-7-29,79.3,70.9,63.7,66.0,62.0,57.0,90,75,52,30.22,30.09,4,1,0,0.00
2013-7-30,87.9,75.8,61.3,72.0,63.2,-99.9,90,71,46,30.25,30.12,9,1,0,0.01
2013-7-31,82.0,73.4,68.4,75.0,69.1,64.0,89,86,76,30.17,29.99,12,4,0,0.00
2013-8-1,83.7,73.2,68.3,72.0,64.3,-99.9,90,79,65,30.04,29.98,6,-26,0,0.00
2013-8-2,85.4,75.3,67.0,70.0,66.3,62.0,90,75,47,30.08,30.00,5,0,0,0.01
2013-8-3,82.4,74.2,65.7,74.0,69.5,63.0,90,85,71,30.11,30.04,7,1,0,0.00
2013-8-4,84.5,76.7,70.3,73.0,70.1,67.0,90,81,64,30.11,30.03,7,2,0,0.00
2013-8-5,80.5,73.2,67.6,68.0,65.2,61.0,90,77,54,30.11,30.02,4,0,0,0.01
2013-8-6,80.8,73.6,69.7,74.0,69.4,66.0,90,86,75,30.08,29.99,6,0,0,0.00
2013-8-7,85.8,75.4,70.3,76.0,70.8,67.0,90,85,69,30.06,29.98,13,2,0,0.01
2013-8-8,87.3,74.2,68.4,77.0,68.6,-99.9,90,85,71,30.08,30.00,13,-8,0,0.01
2013-8-9,87.6,78.3,70.7,76.0,72.1,67.0,90,82,65,30.11,30.03,9,2,0,0.01
2013-8-10,82.2,74.9,71.1,76.0,71.4,68.0,90,88,81,30.17,30.09,19,1,0,0.01
2013-8-11,86.3,77.8,70.5,77.0,72.0,67.0,91,82,68,30.20,30.10,12,1,0,0.01
2013-8-12,85.7,77.6,71.1,76.0,72.3,68.0,91,84,69,30.15,30.02,11,2,0,0.01
2013-8-13,83.5,76.8,71.6,74.0,71.6,69.0,91,84,70,30.03,29.93,9,2,0,0.00
2013-8-14,78.9,72.3,64.9,72.0,66.7,61.0,91,83,58,30.06,29.96,7,2,0,0.00
2013-8-15,75.3,68.3,62.9,66.0,62.9,60.0,90,83,70,30.10,30.03,11,4,0,0.00
2013-8-16,69.0,66.5,64.2,63.0,61.9,60.0,91,85,78,30.14,30.06,13,5,0,0.00
2013-8-17,67.8,65.6,63.6,64.0,62.3,61.0,92,89,85,30.17,30.09,13,5,0,0.01
2013-8-18,73.9,69.2,65.0,69.0,65.6,62.0,92,88,81,30.22,30.12,13,3,0,0.00
2013-8-19,83.2,74.1,67.7,72.0,69.0,65.0,91,84,67,30.16,30.06,7,2,0,0.00
2013-8-20,80.9,74.8,70.8,74.0,70.9,68.0,91,88,77,30.20,30.11,9,3,0,0.00
2013-8-21,84.1,74.5,69.3,74.0,70.2,67.0,92,86,67,30.23,30.15,12,2,0,0.00
2013-8-22,83.7,75.7,68.6,75.0,71.0,66.0,92,86,73,30.21,30.08,8,1,0,0.00
2013-8-23,86.5,76.7,67.9,74.0,70.5,65.0,92,82,61,30.13,30.02,7,1,0,0.00
2013-8-24,83.3,75.7,68.1,73.0,69.9,65.0,92,83,67,30.25,30.09,12,3,0,0.00
2013-8-25,81.1,73.9,66.8,68.0,65.4,63.0,92,76,57,30.37,30.25,12,4,0,0.00
2013-8-26,81.5,72.0,61.8,67.0,62.8,59.0,92,74,54,30.35,30.19,8,1,0,0.00
2013-8-27,82.6,72.8,62.5,70.0,65.5,60.0,92,79,58,30.21,30.10,6,0,0,0.00
2013-8-28,85.7,73.7,67.1,72.0,63.7,-99.9,92,77,60,30.13,30.04,5,-31,0,0.00
2013-8-29,87.7,78.3,69.8,74.0,71.2,67.0,92,79,62,30.10,30.00,10,2,0,0.00
2013-8-30,86.9,77.6,72.5,77.0,72.8,70.0,92,85,68,30.04,29.96,7,1,0,0.01
2013-8-31,89.1,78.8,70.6,78.0,72.2,68.0,92,81,56,30.00,29.89,6,1,0,0.00
2013-9-1,87.2,78.6,72.9,75.0,72.3,70.0,91,81,61,29.97,29.88,9,1,0,0.00
2013-9-2,83.4,73.4,67.2,73.0,65.9,-99.9,92,82,65,30.03,29.90,9,-20,0,0.19
2013-9-3,84.1,76.5,69.7,74.0,69.6,66.0,92,80,56,30.04,29.94,6,1,0,0.02
2013-9-4,83.7,74.3,65.2,69.0,65.2,63.0,92,75,53,30.16,30.02,8,1,0,0.01
2013-9-5,82.8,73.3,64.5,69.0,65.3,62.0,92,77,58,30.20,30.13,5,1,0,0.01
2013-9-6,86.5,74.9,64.9,72.0,67.3,62.0,92,78,53,30.20,30.08,8,1,0,0.00
2013-9-7,86.0,76.0,66.8,71.0,68.6,64.0,92,79,57,30.15,30.04,9,1,0,0.00
2013-9-8,86.5,76.2,65.3,73.0,69.0,63.0,92,79,59,30.07,29.99,6,1,0,0.00
2013-9-9,87.7,76.9,68.7,73.0,70.4,66.0,92,81,58,30.13,30.03,8,1,0,0.00
2013-9-10,87.1,78.2,70.8,73.0,70.6,67.0,91,78,58,30.23,30.13,8,3,0,0.00
2013-9-11,87.0,77.1,68.0,71.0,67.8,64.0,92,75,49,30.25,30.13,8,1,0,0.00
2013-9-12,86.7,75.9,66.9,71.0,67.7,65.0,92,78,54,30.13,29.96,8,1,0,0.00
2013-9-13,79.8,71.1,61.7,69.0,60.7,-99.9,92,73,47,30.00,29.91,10,-8,0,0.00
2013-9-14,76.5,65.1,54.0,59.0,54.9,51.0,91,71,44,30.11,30.00,9,2,0,0.00
2013-9-15,81.3,69.1,60.0,66.0,61.3,56.0,91,78,50,30.18,30.11,15,4,0,0.00
2013-9-16,83.3,71.4,59.5,68.0,60.4,57.0,92,71,43,30.21,30.12,8,1,0,0.00
2013-9-17,79.0,71.3,63.5,69.0,64.9,61.0,91,80,70,30.23,30.14,13,5,0,0.00
2013-9-18,79.0,70.3,64.1,67.0,63.3,60.0,88,79,66,30.25,30.14,14,5,0,0.00
2013-9-19,81.8,71.6,62.5,66.0,63.6,60.0,92,77,59,30.23,30.09,8,2,0,0.00
2013-9-20,83.3,73.9,65.0,68.0,65.1,62.0,90,75,52,30.11,29.91,9,3,0,0.00
2013-9-21,71.8,67.6,59.5,69.0,64.9,57.0,92,91,87,29.90,29.78,16,3,0,1.22
2013-9-22,75.5,64.0,54.0,60.0,56.2,52.0,93,77,51,29.95,29.86,14,2,0,0.08
2013-9-23,78.8,66.4,53.1,63.0,58.0,51.0,92,76,52,30.04,29.94,13,3,0,0.02
2013-9-24,68.5,65.9,62.8,65.0,63.0,60.0,92,90,87,30.04,29.90,13,5,0,0.00
2013-9-25,72.3,66.8,63.7,67.0,63.9,61.0,92,90,83,29.93,29.86,8,2,0,0.04
2013-9-26,78.6,68.9,62.0,66.0,62.9,60.0,92,82,61,30.05,29.92,8,1,0,0.00
2013-9-27,78.2,67.3,57.6,64.0,58.9,55.0,92,77,46,30.18,30.05,9,2,0,0.00
2013-9-28,75.7,66.0,57.0,59.0,57.4,55.0,92,75,53,30.26,30.14,14,4,0,0.00
2013-9-29,71.4,64.0,55.4,61.0,56.7,53.0,92,78,63,30.19,30.07,11,3,0,0.00
2013-9-30,73.6,65.5,60.3,62.0,58.7,56.0,90,79,62,30.13,30.04,10,3,0,0.00
2013-10-1,79.8,69.2,59.6,67.0,63.1,57.0,92,82,62,30.20,30.09,9,2,0,0.00
2013-10-2,81.2,71.0,61.3,67.0,63.3,59.0,92,78,54,30.21,30.10,5,0,0,0.00
2013-10-3,80.7,72.4,65.2,66.0,63.9,61.0,91,76,55,30.17,30.08,9,2,0,0.00
2013-10-4,83.2,72.5,63.4,69.0,65.4,61.0,92,79,59,30.19,30.11,9,1,0,0.00
2013-10-5,83.9,73.7,63.8,68.0,65.6,61.0,92,77,57,30.15,30.01,9,3,0,0.00
2013-10-6,78.7,70.3,56.4,69.0,65.3,54.0,92,84,71,30.00,29.85,18,5,0,0.29
2013-10-7,68.2,59.3,53.4,54.0,51.9,50.0,92,77,54,30.10,29.94,11,4,0,0.01
2013-10-8,74.6,60.6,51.8,60.0,51.9,48.0,86,74,57,30.14,30.06,14,6,0,0.00
2013-10-9,75.1,68.8,60.6,59.0,56.2,50.0,89,66,52,30.23,30.14,9,2,0,0.00
2013-10-10,77.6,66.2,56.1,62.0,58.5,54.0,92,78,53,30.20,30.07,7,1,0,0.00
2013-10-11,76.7,65.6,54.6,60.0,57.2,52.0,91,76,51,30.14,30.05,9,1,0,0.00
2013-10-12,78.0,65.6,53.4,62.0,57.4,51.0,91,77,53,30.17,30.07,9,1,0,0.00
2013-10-13,78.4,67.8,58.8,61.0,57.7,56.0,91,72,46,30.26,30.17,11,2,0,0.00
2013-10-14,77.0,66.9,57.1,65.0,59.8,55.0,91,79,60,30.27,30.14,11,2,0,0.00
2013-10-15,68.2,63.6,59.0,61.0,59.0,56.0,91,85,75,30.18,30.08,14,4,0,0.00
2013-10-16,70.4,64.3,59.5,64.0,60.7,57.0,91,88,79,30.11,29.99,10,3,0,0.04
2013-10-17,66.4,61.6,53.4,64.0,56.9,-99.9,92,89,89,30.05,29.94,8,-18,0,0.03
2013-10-18,65.0,56.4,49.0,53.0,50.4,47.0,93,81,57,30.14,30.02,10,2,0,0.00
2013-10-19,67.1,57.2,47.9,56.0,52.2,46.0,92,84,65,30.09,29.99,12,2,0,0.00
2013-10-20,63.6,50.9,37.6,46.0,40.5,32.0,93,72,31,30.16,30.09,8,1,0,0.00
2013-10-21,69.6,54.2,39.1,52.0,44.8,37.0,92,74,39,30.19,30.08,7,1,0,0.00
2013-10-22,66.0,58.7,51.7,55.0,52.7,50.0,92,81,62,30.09,29.93,9,1,0,0.00
2013-10-23,55.6,49.7,41.2,49.0,41.5,36.0,92,75,49,30.18,29.94,16,4,0,0.00
2013-10-24,60.8,48.6,37.0,44.0,40.3,35.0,92,75,46,30.35,30.18,8,2,0,0.00
2013-10-25,51.6,42.3,33.8,37.0,30.7,26.0,83,65,40,30.52,30.35,12,3,0,0.00
2013-10-26,60.4,45.6,30.1,38.0,32.4,27.0,90,64,31,30.41,30.23,9,2,0,0.00
2013-10-27,64.9,56.3,46.9,54.0,47.7,38.0,91,73,59,30.22,30.15,7,2,0,0.00
2013-10-28,64.0,57.7,54.4,58.0,53.2,-99.9,92,87,78,30.31,30.18,8,-9,0,0.01
2013-10-29,73.6,61.3,53.3,62.0,53.9,-99.9,92,81,63,30.36,30.26,9,-9,0,0.00
2013-10-30,75.5,66.0,58.2,62.0,58.0,56.0,92,77,53,30.33,30.14,9,2,0,0.00
2013-10-31,72.0,66.4,61.2,66.0,61.2,55.0,91,83,77,30.15,29.77,23,10,0,0.12
2013-11-1,69.0,61.8,53.6,63.0,53.4,46.0,92,75,49,29.91,29.80,15,2,0,0.00
2013-11-2,62.9,54.2,46.5,50.0,43.5,39.0,90,69,44,30.19,29.90,15,4,0,0.00
2013-11-3,59.7,50.0,41.5,42.0,38.9,34.0,91,68,41,30.36,30.19,7,2,0,0.00
2013-11-4,64.3,53.3,42.0,42.0,39.4,37.0,85,61,38,30.47,30.35,22,8,0,0.00
2013-11-5,61.5,53.7,46.8,44.0,39.6,37.0,70,60,51,30.48,30.35,18,8,0,0.00
2013-11-6,70.0,61.2,52.0,60.0,55.2,43.0,91,81,70,30.34,30.12,14,7,0,0.04
2013-11-7,61.8,50.2,41.9,59.0,42.2,31.0,92,75,52,30.36,30.10,15,6,0,0.07
2013-11-8,57.4,45.8,35.9,34.0,30.7,24.0,80,58,28,30.46,30.32,11,2,0,0.00
2013-11-9,57.7,48.8,38.1,42.0,36.2,28.0,84,63,40,30.41,30.28,9,2,0,0.00
2013-11-10,67.0,55.0,45.0,46.0,42.0,36.0,90,64,42,30.39,30.30,12,2,0,0.00
2013-11-11,67.0,52.6,39.5,36.0,30.6,21.0,81,48,18,30.38,30.23,6,1,0,0.00
2013-11-12,52.4,42.3,31.0,44.0,28.6,15.0,85,60,43,30.60,30.23,18,7,0,0.00
2013-11-13,47.3,35.8,26.1,21.0,18.3,15.0,73,51,31,30.71,30.55,13,3,0,0.00
2013-11-14,56.3,42.3,25.7,26.0,20.3,17.0,75,45,22,30.57,30.33,11,2,0,0.00
2013-11-15,54.6,49.5,44.6,49.0,40.9,25.0,92,74,43,30.34,30.16,14,5,0,0.12
2013-11-16,64.6,57.0,49.2,58.0,53.8,47.0,92,89,80,30.24,30.12,18,7,0,0.01
2013-11-17,69.4,64.4,59.4,67.0,61.8,57.0,92,91,89,30.11,29.92,15,8,0,0.28
2013-11-18,69.2,58.1,47.6,67.0,43.1,33.0,91,60,32,30.19,29.96,12,5,0,0.00
2013-11-19,53.0,46.3,39.5,32.0,28.6,25.0,67,51,37,30.27,30.18,14,5,0,0.00
2013-11-20,57.0,49.1,40.1,38.0,33.9,28.0,66,56,47,30.35,30.22,19,9,0,0.00
2013-11-21,62.3,55.1,50.4,53.0,46.3,38.0,84,72,60,30.40,30.30,14,8,0,0.00
2013-11-22,64.3,57.2,52.8,59.0,54.0,49.0,92,89,81,30.37,30.25,8,4,0,0.01
2013-11-23,52.7,45.3,32.5,51.0,39.1,22.0,93,80,56,30.45,30.26,16,7,0,0.00
2013-11-24,40.6,31.7,25.5,24.0,16.4,13.0,76,55,35,30.63,30.45,14,5,0,0.00
2013-11-25,40.1,35.3,27.9,35.0,22.4,13.0,93,62,42,30.52,30.22,16,8,0,0.63
2013-11-26,46.1,41.0,35.3,44.0,39.3,34.0,94,93,93,30.22,29.84,17,8,0,1.56
2013-11-27,34.9,31.6,24.1,33.0,23.2,15.0,93,72,57,30.44,29.91,22,10,0,0.00
2013-11-28,41.8,31.1,20.3,21.0,17.5,14.0,79,59,35,30.58,30.44,5,1,0,0.00
2013-11-29,53.3,40.0,26.0,29.0,24.9,20.0,84,58,32,30.65,30.55,7,2,0,0.00
2013-11-30,51.9,44.2,38.4,32.0,29.6,27.0,70,57,43,30.60,30.37,14,6,0,0.00
2013-12-1,55.7,46.1,34.9,41.0,35.1,28.0,77,66,50,30.37,30.06,9,3,0,0.00
2013-12-2,52.6,49.2,44.9,51.0,46.7,40.0,93,91,72,30.06,29.86,8,2,0,0.42
2013-12-3,58.2,54.1,49.2,56.0,52.0,47.0,93,92,92,29.92,29.85,8,4,0,0.01
2013-12-4,70.3,64.2,58.2,64.0,60.7,56.0,93,88,76,30.02,29.91,21,7,0,0.00
2013-12-5,73.1,67.4,57.5,68.0,64.8,55.0,92,91,82,30.07,29.96,14,4,0,0.00
2013-12-6,56.6,45.2,36.9,54.0,43.4,35.0,94,93,92,30.29,29.97,16,4,0,0.41
2013-12-7,38.6,36.3,34.3,37.0,34.4,33.0,94,93,90,30.47,30.29,13,6,0,0.00
2013-12-8,49.7,45.8,38.9,48.0,44.1,37.0,94,93,93,30.35,30.15,13,6,0,1.03
2013-12-9,49.4,45.8,41.0,48.0,44.0,39.0,94,93,93,30.24,30.09,15,4,0,0.20
2013-12-10,40.8,34.9,28.9,39.0,31.7,27.0,94,88,72,30.45,30.07,15,6,0,0.31
2013-12-11,51.8,36.5,23.1,36.0,27.9,22.0,94,74,42,30.55,30.45,8,2,0,0.01
2013-12-12,41.3,33.0,25.6,27.0,21.6,16.0,87,65,38,30.62,30.51,12,4,0,0.00
2013-12-13,49.2,38.5,25.5,30.0,24.5,20.0,83,60,38,30.50,30.20,12,3,0,0.00
2013-12-14,53.6,48.1,38.6,51.0,43.9,29.0,93,86,55,30.21,29.88,17,6,0,0.59
2013-12-15,38.5,34.8,32.3,36.0,31.9,29.0,93,89,83,30.34,30.03,15,7,0,0.00
2013-12-16,52.6,42.1,29.1,35.0,32.3,28.0,94,70,48,30.39,30.27,13,4,0,0.00
2013-12-17,59.6,48.1,37.8,40.0,35.9,30.0,82,64,46,30.34,30.17,18,6,0,0.00
2013-12-18,53.0,42.4,32.5,31.0,25.4,20.0,78,54,29,30.45,30.33,7,2,0,0.00
2013-12-19,59.9,47.9,36.2,33.0,29.4,25.0,65,50,33,30.38,30.22,13,4,0,0.00
2013-12-20,63.9,57.1,48.2,58.0,46.2,32.0,88,68,49,30.22,30.08,15,6,0,0.00
2013-12-21,71.6,65.5,59.9,67.0,62.4,57.0,92,89,84,30.08,29.85,33,10,0,0.04
2013-12-22,71.0,56.3,52.8,66.0,54.0,51.0,93,92,85,30.14,29.83,16,4,0,1.19
2013-12-23,52.8,40.4,31.7,51.0,37.2,27.0,94,88,80,30.47,30.12,16,8,0,0.01
2013-12-24,34.7,29.6,25.1,27.0,22.8,19.0,89,76,60,30.60,30.45,12,5,0,0.00
2013-12-25,46.5,34.4,21.8,29.0,24.2,18.0,92,68,49,30.55,30.42,14,3,0,0.00
2013-12-26,48.7,38.4,29.8,34.0,30.1,26.0,87,73,53,30.48,30.39,9,2,0,0.00
2013-12-27,52.8,40.5,28.5,33.0,29.4,26.0,91,67,39,30.55,30.44,8,2,0,0.00
2013-12-28,44.3,40.4,38.1,39.0,34.8,29.0,93,81,59,30.45,30.02,22,6,0,1.22
2013-12-29,49.6,43.1,40.3,44.0,40.7,39.0,98,91,79,30.16,29.98,7,2,0,0.08
2013-12-30,43.9,39.5,35.2,42.0,37.1,33.0,94,90,84,30.34,30.15,9,4,0,0.00
2013-12-31,41.4,35.0,31.4,33.0,29.6,28.0,93,81,60,30.55,30.34,10,4,0,0.00
2014-1-1,49.1,39.5,30.2,40.0,32.8,27.0,91,78,61,30.43,30.16,12,4,0,0.00
2014-1-2,48.5,37.7,23.0,46.0,33.9,14.0,93,86,68,30.36,29.93,25,9,0,0.29